Lid_Strength_Index
9 13 15 14 13 13 13 15 16 13 11 13 14 14 12 10 10 10 10 9 8 7 6 5 4 2 2 2 2 2 2 3 1 1 2 2 2 2 2 1 1 1 1 -0
12 14 11 9 10 11 13 16 16 13 11 12 14 14 11 9 8 7 7 7 6 6 5 4 3 3 3 3 2 2 2 1 1 1 1 1 1 2 2 1 0 1 1 1
13 12 8 10 12 13 15 17 16 15 13 12 13 15 13 9 8 8 6 6 5 6 7 6 4 4 3 3 3 2 2 1 1 1 1 2 2 2 3 1 1 1 1 2
13 10 10 11 13 13 18 12 13 14 15 19 13 19 14 11 10 9 7 7 7 6 5 5 4 4 4 3 2 2 2 2 2 1 2 3 3 4 3 2 1 1 1 2
14 12 12 13 12 10 14 11 12 12 14 15 15 17 16 12 12 10 9 8 6 5 5 5 4 4 3 3 2 2 2 2 2 1 2 2 3 3 2 2 2 2 1 2
12 9 10 11 10 10 10 12 12 13 14 19 16 16 20 14 13 11 9 8 7 6 5 5 4 3 3 3 2 2 2 3 3 2 1 2 3 3 3 3 3 2 2 1
14 13 9 8 12 11 12 14 21 22 20 22 15 17 16 12 11 9 9 8 8 7 6 5 5 5 4 3 3 2 2 3 2 2 1 2 2 2 3 3 3 2 2 1
21 19 11 9 11 13 13 14 19 23 22 20 15 19 16 10 10 9 7 7 7 6 6 6 5 5 4 3 3 3 3 3 2 3 3 3 2 1 1 1 2 1 1 1
16 17 9 9 9 11 14 16 12 17 16 19 17 15 12 11 11 10 9 8 8 7 6 6 5 4 4 4 3 3 3 3 2 2 3 3 1 1 1 1 1 1 1 1
13 17 11 10 9 10 12 11 17 16 22 23 19 18 17 14 14 10 9 9 8 7 6 6 5 4 4 3 3 3 2 3 2 2 2 2 2 2 1 1 1 2 2 2
11 13 14 11 13 14 13 15 14 14 17 21 22 19 13 14 13 12 10 9 8 7 7 6 5 4 4 3 3 3 3 3 2 2 2 2 2 2 2 2 1 1 1 2
10 13 16 15 10 9 11 13 13 18 18 17 18 18 11 11 11 11 11 9 8 7 6 5 5 4 4 4 3 3 3 3 2 2 2 3 2 2 3 3 2 2 1 1
10 14 18 17 13 10 13 12 11 12 14 17 19 18 11 11 12 11 13 10 9 7 7 7 5 5 4 4 3 3 3 3 2 2 3 3 3 3 3 3 3 2 2 2
8 12 15 18 16 13 15 13 12 13 17 17 17 16 14 13 13 12 12 11 10 10 9 8 8 7 6 5 5 5 4 3 2 2 3 3 3 3 3 3 2 2 2 2
9 14 13 12 11 12 13 14 13 14 14 17 15 15 14 13 13 12 11 11 11 10 10 10 9 8 7 7 6 5 5 5 4 4 4 4 4 3 3 4 4 3 2 3
9 15 13 15 12 12 14 12 12 12 12 13 13 14 11 11 11 12 12 11 11 11 10 9 9 8 8 7 7 6 7 6 5 6 6 6 5 5 5 5 6 6 6 7
11 13 16 18 13 14 16 13 12 12 11 12 15 12 10 11 11 12 12 11 12 11 10 9 9 8 8 8 7 7 7 7 7 7 7 7 7 7 7 7 7 7 7 7
12 13 14 17 15 20 13 9 9 11 10 10 10 9 10 10 10 9 9 11 11 11 10 9 9 9 8 8 8 8 8 7 7 7 7 7 7 8 8 8 8 8 8 8
11 12 15 17 18 15 13 11 11 12 13 9 10 9 9 8 9 9 8 9 9 9 9 8 8 8 8 9 8 8 8 8 8 8 8 7 8 8 9 9 9 9 9 9
10 11 14 15 18 20 14 10 9 9 15 9 9 10 10 9 12 10 8 8 8 7 8 8 8 8 7 7 7 7 8 8 8 8 9 8 7 8 8 8 9 9 9 10
15 15 16 16 18 15 11 10 10 16 14 9 9 9 9 11 10 9 8 8 8 8 8 8 8 9 9 7 7 8 8 8 7 7 7 8 8 7 7 8 8 9 10 10
16 17 17 17 18 20 11 11 13 10 9 9 9 9 9 9 9 9 9 9 9 10 9 9 10 10 9 9 8 9 9 7 6 6 7 7 8 7 8 9 9 9 9 10
18 15 17 16 16 12 11 11 10 9 9 10 9 9 9 10 10 9 10 10 10 10 10 10 11 11 11 10 10 10 9 8 8 8 8 7 7 7 8 9 9 9 9 10
16 14 16 15 14 13 11 10 9 9 9 9 9 9 9 10 10 11 10 10 11 10 11 11 11 12 12 12 11 11 10 9 9 9 9 9 8 8 7 7 7 9 9 10
15 14 15 15 15 13 12 10 10 9 9 9 8 9 9 9 10 10 11 11 11 11 11 11 12 12 12 12 12 11 11 11 10 10 10 10 10 9 8 7 7 7 7 7
15 15 16 17 13 13 13 11 10 10 10 9 9 9 9 9 9 10 11 11 12 12 11 12 12 12 12 12 12 12 12 11 11 11 11 11 11 11 10 10 9 6 6 6